Вернуться в каталог

STARLINK-2388

АктивенСвязьVLEO
NORAD 47807·PAYLOAD·🇺🇸 United States

Запущен Mar 11, 2021 с Cape Canaveral Space Force Station

Loading…

Ближайшие Пролёты (ближайшие 24 часа)

TLE

СвежийSource: CelesTrak SupGP

Эпоха: Sep 15, 2026, 01:26 UTC

1 47807C 21018W   26258.06020833 -.00025044  00000+0 -80564-3 0  2583
2 47807  53.1596  55.4092 0001364  65.1338 109.0115 15.31702704    10

Отслеживайте STARLINK-2388 в реальном времени с AllMySat

Download on the App Store